User: anonymous   Login
Location: Makanda
(37.6176°N, 89.2090°W)
Time: 11:39:44
(UTC+00:00)
Language:

SL-16 R/B - Orbit

View from above orbital plane
View from above orbital plane
View from above satellite
View from above satellite

Ground track
Ground track

The orbit data is extracted from the following two-line orbital elements,

1 28353U 04021B   19321.73098528 +.00000135 +00000-0 +95482-4 0  9997
2 28353 071.0017 025.4668 0007022 288.3716 071.6642 14.14219225797062
Epoch (UTC): 17 November 2019 17:32:37
Eccentricity: 0.0007022
inclination: 71.0017°
perigee height: 840 km
apogee height: 850 km
right ascension of ascending node: 25.4668°
argument of perigee: 288.3716°
revolutions per day: 14.14219225
mean anomaly at epoch: 71.6642°
orbit number at epoch: 79706

The dashed part of the orbit path shows where the satellite is in the earth's shadow,  

DLR